CCM26E LFKF-LFML

Flight info

Callsign CCM26E
Flight time 0h 45m
Altitude 24000
Route AJO Z154 TINOT
Aircraft A20N/M-SDE2E3FGHIRWXY/LB1

Departure

Time 2026-05-06 08:37
Airport Figari Sud-Corse Airport (LFKF)

Arrival

Time 2026-05-06 09:22
Airport Marseille Provence Airport (LFML)
Time Latitude Longitude Altitude Speed Heading
2026-05-06 08:22 41.49993 9.09830 66 ft 0 kts 136°
2026-05-06 08:28 41.50003 9.09817 66 ft 2 kts 136°
2026-05-06 08:28 41.50011 9.09807 66 ft 1 kts 137°
2026-05-06 08:28 41.50020 9.09791 66 ft 2 kts 106°
2026-05-06 08:28 41.50021 9.09771 66 ft 2 kts 80°
2026-05-06 08:29 41.50016 9.09752 66 ft 1 kts 53°
2026-05-06 08:29 41.50012 9.09746 66 ft 1 kts 44°
2026-05-06 08:29 41.50010 9.09743 66 ft 0 kts 46°
2026-05-06 08:32 41.50011 9.09745 66 ft 1 kts 46°
2026-05-06 08:32 41.50023 9.09762 66 ft 3 kts 47°
2026-05-06 08:32 41.50049 9.09800 67 ft 6 kts 45°
2026-05-06 08:32 41.50097 9.09808 68 ft 7 kts 332°
2026-05-06 08:33 41.50135 9.09765 69 ft 7 kts 317°
2026-05-06 08:33 41.50172 9.09721 69 ft 6 kts 317°
2026-05-06 08:33 41.50208 9.09690 70 ft 5 kts 356°
2026-05-06 08:33 41.50247 9.09729 71 ft 9 kts 49°
2026-05-06 08:34 41.50313 9.09825 72 ft 16 kts 47°
2026-05-06 08:34 41.50503 9.10100 74 ft 21 kts 48°
2026-05-06 08:34 41.50602 9.10244 73 ft 21 kts 47°
2026-05-06 08:35 41.50703 9.10391 74 ft 21 kts 47°
2026-05-06 08:35 41.50800 9.10531 76 ft 19 kts 47°
2026-05-06 08:35 41.50888 9.10660 79 ft 16 kts 47°
2026-05-06 08:35 41.50923 9.10764 81 ft 10 kts 79°
2026-05-06 08:36 41.50951 9.10768 81 ft 7 kts 275°
2026-05-06 08:36 41.50932 9.10723 81 ft 0 kts 227°
2026-05-06 08:36 41.50893 9.10667 79 ft 32 kts 227°
2026-05-06 08:36 41.50564 9.10190 74 ft 104 kts 227°
2026-05-06 08:37 41.49934 9.09287 87 ft 157 kts 227°
2026-05-06 08:37 41.49185 9.08244 714 ft 155 kts 224°
2026-05-06 08:37 41.48292 9.07458 1412 ft 157 kts 202°
2026-05-06 08:37 41.47239 9.07017 2044 ft 162 kts 199°
2026-05-06 08:38 41.46105 9.06515 2555 ft 176 kts 201°
2026-05-06 08:38 41.44864 9.05902 3063 ft 192 kts 202°
2026-05-06 08:38 41.43514 9.05185 3492 ft 216 kts 203°
2026-05-06 08:38 41.42089 9.04374 4285 ft 221 kts 210°
2026-05-06 08:39 41.40969 9.02924 5184 ft 221 kts 243°
2026-05-06 08:39 41.40664 9.00906 6094 ft 223 kts 275°
2026-05-06 08:39 41.41177 8.98941 6980 ft 228 kts 292°
2026-05-06 08:39 41.41871 8.97043 7843 ft 229 kts 290°
2026-05-06 08:40 41.42568 8.95083 8712 ft 230 kts 291°
2026-05-06 08:40 41.43569 8.93276 9315 ft 253 kts 316°
2026-05-06 08:40 41.45268 8.92118 9830 ft 278 kts 334°
2026-05-06 08:40 41.47191 8.91307 10331 ft 296 kts 337°
2026-05-06 08:41 41.49294 8.90449 10785 ft 313 kts 336°
2026-05-06 08:41 41.51470 8.89513 11201 ft 331 kts 336°
2026-05-06 08:41 41.53776 8.88476 11768 ft 343 kts 335°
2026-05-06 08:41 41.56101 8.87408 12530 ft 347 kts 335°
2026-05-06 08:42 41.58451 8.86314 13334 ft 350 kts 334°
2026-05-06 08:42 41.60792 8.85211 14081 ft 354 kts 334°
2026-05-06 08:42 41.63132 8.84100 14763 ft 358 kts 334°
2026-05-06 08:42 41.65512 8.82967 15458 ft 362 kts 334°
2026-05-06 08:43 41.67907 8.81827 16120 ft 367 kts 335°
2026-05-06 08:43 41.70333 8.80671 16752 ft 371 kts 335°
2026-05-06 08:43 41.72849 8.79472 17408 ft 376 kts 335°
2026-05-06 08:43 41.75339 8.78101 18026 ft 373 kts 323°
2026-05-06 08:44 41.77251 8.75848 18614 ft 363 kts 302°
2026-05-06 08:44 41.78445 8.72888 19261 ft 356 kts 286°
2026-05-06 08:44 41.79325 8.69752 19876 ft 359 kts 285°
2026-05-06 08:44 41.80220 8.66537 20470 ft 363 kts 285°
2026-05-06 08:45 41.81117 8.63344 21058 ft 366 kts 285°
2026-05-06 08:45 41.82041 8.60075 21655 ft 369 kts 285°
2026-05-06 08:45 41.82970 8.56806 22197 ft 373 kts 285°
2026-05-06 08:45 41.83905 8.53517 22727 ft 377 kts 285°
2026-05-06 08:46 41.84860 8.50160 23283 ft 380 kts 285°
2026-05-06 08:46 41.85827 8.46759 23771 ft 383 kts 285°
2026-05-06 08:46 41.86777 8.43413 23936 ft 384 kts 285°
2026-05-06 08:46 41.87751 8.39974 23929 ft 383 kts 285°
2026-05-06 08:47 41.88699 8.36621 23941 ft 383 kts 285°
2026-05-06 08:47 41.89660 8.33214 23942 ft 384 kts 284°
2026-05-06 08:47 41.90626 8.29784 23935 ft 383 kts 284°
2026-05-06 08:47 41.91577 8.26406 23939 ft 383 kts 284°
2026-05-06 08:48 41.92532 8.23009 23939 ft 384 kts 285°
2026-05-06 08:48 41.93500 8.19554 23933 ft 384 kts 285°
2026-05-06 08:48 41.94459 8.16135 23940 ft 384 kts 285°
2026-05-06 08:48 41.95420 8.12705 23933 ft 385 kts 285°
2026-05-06 08:49 41.96379 8.09276 23939 ft 384 kts 285°
2026-05-06 08:49 41.97338 8.05838 23930 ft 385 kts 285°
2026-05-06 08:49 41.98300 8.02387 23932 ft 385 kts 285°
2026-05-06 08:49 41.99262 7.98932 23939 ft 385 kts 285°
2026-05-06 08:50 42.00212 7.95523 23931 ft 385 kts 285°
2026-05-06 08:50 42.01170 7.92076 23927 ft 384 kts 284°
2026-05-06 08:50 42.02123 7.88637 23927 ft 384 kts 285°
2026-05-06 08:50 42.03072 7.85214 23929 ft 384 kts 284°
2026-05-06 08:51 42.04026 7.81771 23929 ft 384 kts 284°
2026-05-06 08:51 42.04983 7.78306 23927 ft 384 kts 284°
2026-05-06 08:51 42.05935 7.74859 23928 ft 384 kts 284°
2026-05-06 08:51 42.06881 7.71422 23932 ft 383 kts 284°
2026-05-06 08:52 42.07827 7.67983 23939 ft 383 kts 284°
2026-05-06 08:52 42.08768 7.64562 23943 ft 383 kts 284°
2026-05-06 08:52 42.09709 7.61128 23944 ft 383 kts 284°
2026-05-06 08:52 42.10664 7.57636 23937 ft 383 kts 284°
2026-05-06 08:53 42.11610 7.54177 23942 ft 383 kts 284°
2026-05-06 08:53 42.12552 7.50732 23936 ft 382 kts 284°
2026-05-06 08:53 42.13501 7.47250 23936 ft 382 kts 284°
2026-05-06 08:53 42.14447 7.43779 23927 ft 382 kts 284°
2026-05-06 08:54 42.15390 7.40314 23924 ft 382 kts 284°
2026-05-06 08:54 42.16325 7.36873 23921 ft 381 kts 284°
2026-05-06 08:54 42.17271 7.33387 23923 ft 381 kts 283°
2026-05-06 08:54 42.18211 7.29916 23920 ft 381 kts 283°
2026-05-06 08:55 42.19157 7.26423 23920 ft 381 kts 283°
2026-05-06 08:55 42.20108 7.22898 23925 ft 381 kts 283°
2026-05-06 08:55 42.21047 7.19417 23920 ft 380 kts 283°
2026-05-06 08:55 42.21986 7.15932 23921 ft 380 kts 284°
2026-05-06 08:56 42.22919 7.12463 23923 ft 380 kts 283°
2026-05-06 08:56 42.23853 7.08989 23920 ft 380 kts 283°
2026-05-06 08:56 42.24786 7.05510 23920 ft 380 kts 283°
2026-05-06 08:56 42.25713 7.02053 23917 ft 380 kts 283°
2026-05-06 08:57 42.26644 6.98567 23918 ft 379 kts 283°
2026-05-06 08:57 42.27566 6.95117 23918 ft 380 kts 283°
2026-05-06 08:57 42.28498 6.91619 23919 ft 379 kts 283°
2026-05-06 08:57 42.29431 6.88119 23916 ft 379 kts 283°
2026-05-06 08:58 42.30360 6.84626 23915 ft 379 kts 283°
2026-05-06 08:58 42.31269 6.81203 23918 ft 379 kts 283°
2026-05-06 08:58 42.32194 6.77719 23920 ft 379 kts 283°
2026-05-06 08:58 42.33111 6.74268 23918 ft 378 kts 283°
2026-05-06 08:59 42.34020 6.70830 23916 ft 377 kts 283°
2026-05-06 08:59 42.34927 6.67399 23914 ft 376 kts 283°
2026-05-06 08:59 42.35838 6.63933 23915 ft 376 kts 283°
2026-05-06 08:59 42.36750 6.60471 23914 ft 376 kts 283°
2026-05-06 09:00 42.37639 6.57089 23914 ft 376 kts 283°
2026-05-06 09:00 42.38539 6.53657 23911 ft 376 kts 283°
2026-05-06 09:00 42.39447 6.50192 23908 ft 375 kts 283°
2026-05-06 09:00 42.40348 6.46743 23908 ft 375 kts 283°
2026-05-06 09:01 42.41244 6.43312 23909 ft 374 kts 283°
2026-05-06 09:01 42.42151 6.39841 23907 ft 373 kts 283°
2026-05-06 09:01 42.43044 6.36413 23905 ft 373 kts 283°
2026-05-06 09:01 42.43932 6.32996 23903 ft 373 kts 282°
2026-05-06 09:02 42.44824 6.29563 23909 ft 373 kts 282°
2026-05-06 09:02 42.45723 6.26103 23913 ft 373 kts 282°
2026-05-06 09:02 42.46628 6.22616 23918 ft 372 kts 282°
2026-05-06 09:02 42.47503 6.19236 23920 ft 371 kts 282°
2026-05-06 09:03 42.48382 6.15827 23923 ft 371 kts 282°
2026-05-06 09:03 42.49255 6.12448 23922 ft 370 kts 282°
2026-05-06 09:03 42.50125 6.09068 23923 ft 369 kts 282°
2026-05-06 09:03 42.50991 6.05696 23926 ft 369 kts 282°
2026-05-06 09:04 42.51851 6.02353 23925 ft 369 kts 282°
2026-05-06 09:04 42.52719 5.98967 23734 ft 370 kts 282°
2026-05-06 09:04 42.53601 5.95512 23018 ft 374 kts 282°
2026-05-06 09:04 42.54475 5.92089 22420 ft 372 kts 282°
2026-05-06 09:05 42.55354 5.88652 21872 ft 369 kts 283°
2026-05-06 09:05 42.56222 5.85252 21346 ft 366 kts 283°
2026-05-06 09:05 42.57095 5.81829 20809 ft 362 kts 283°
2026-05-06 09:05 42.57934 5.78535 20298 ft 359 kts 283°
2026-05-06 09:06 42.58768 5.75248 19796 ft 356 kts 283°
2026-05-06 09:06 42.59593 5.71993 19283 ft 353 kts 283°
2026-05-06 09:06 42.60412 5.68759 18755 ft 351 kts 283°
2026-05-06 09:06 42.61235 5.65502 18230 ft 348 kts 284°
2026-05-06 09:07 42.62043 5.62305 17724 ft 346 kts 284°
2026-05-06 09:07 42.62852 5.59093 17201 ft 344 kts 284°
2026-05-06 09:07 42.63649 5.55925 16687 ft 343 kts 285°
2026-05-06 09:07 42.64433 5.52812 16174 ft 341 kts 285°
2026-05-06 09:08 42.65220 5.49683 15656 ft 339 kts 285°
2026-05-06 09:08 42.66017 5.46508 15148 ft 338 kts 286°
2026-05-06 09:08 42.66796 5.43399 14649 ft 336 kts 286°
2026-05-06 09:08 42.67564 5.40332 14159 ft 334 kts 286°
2026-05-06 09:09 42.68327 5.37280 13661 ft 333 kts 286°
2026-05-06 09:09 42.69120 5.34206 13157 ft 332 kts 290°
2026-05-06 09:09 42.70398 5.31480 12666 ft 336 kts 309°
2026-05-06 09:09 42.72259 5.29457 12218 ft 338 kts 325°
2026-05-06 09:10 42.74351 5.27782 11756 ft 336 kts 326°
2026-05-06 09:10 42.76465 5.26128 11287 ft 334 kts 327°
2026-05-06 09:10 42.78545 5.24494 10828 ft 332 kts 327°
2026-05-06 09:10 42.80594 5.22872 10420 ft 328 kts 327°
2026-05-06 09:11 42.82571 5.21304 10270 ft 315 kts 327°
2026-05-06 09:11 42.84482 5.19782 10134 ft 302 kts 327°
2026-05-06 09:11 42.86306 5.18327 10004 ft 290 kts 326°
2026-05-06 09:11 42.88074 5.16912 9770 ft 283 kts 326°
2026-05-06 09:12 42.89800 5.15526 9398 ft 281 kts 326°
2026-05-06 09:12 42.91538 5.14131 9044 ft 279 kts 326°
2026-05-06 09:12 42.93260 5.12859 8689 ft 279 kts 337°
2026-05-06 09:12 42.95248 5.12639 8323 ft 284 kts
2026-05-06 09:13 42.97111 5.13722 7995 ft 285 kts 26°
2026-05-06 09:13 42.98863 5.15070 7662 ft 283 kts 26°
2026-05-06 09:13 43.00579 5.16374 7341 ft 280 kts 26°
2026-05-06 09:13 43.02318 5.17681 7016 ft 277 kts 25°
2026-05-06 09:14 43.04010 5.18943 6690 ft 275 kts 25°
2026-05-06 09:14 43.05728 5.20219 6361 ft 273 kts 25°
2026-05-06 09:14 43.07397 5.21455 6046 ft 271 kts 25°
2026-05-06 09:14 43.09094 5.22711 5722 ft 268 kts 25°
2026-05-06 09:15 43.10733 5.23926 5407 ft 266 kts 25°
2026-05-06 09:15 43.12355 5.25129 5197 ft 264 kts 25°
2026-05-06 09:15 43.13976 5.26331 5024 ft 261 kts 25°
2026-05-06 09:15 43.15572 5.27516 4845 ft 261 kts 25°
2026-05-06 09:16 43.17182 5.28712 4665 ft 256 kts 25°
2026-05-06 09:16 43.18757 5.29884 4483 ft 248 kts 25°
2026-05-06 09:16 43.20257 5.31002 4304 ft 240 kts 25°
2026-05-06 09:16 43.21746 5.32110 4117 ft 233 kts 25°
2026-05-06 09:17 43.23250 5.32946 3923 ft 223 kts
2026-05-06 09:17 43.24794 5.33036 3751 ft 214 kts 356°
2026-05-06 09:17 43.26284 5.32978 3567 ft 208 kts 356°
2026-05-06 09:17 43.27715 5.32918 3383 ft 202 kts 356°
2026-05-06 09:18 43.29144 5.32867 3206 ft 200 kts 356°
2026-05-06 09:18 43.30530 5.32826 3023 ft 195 kts 356°
2026-05-06 09:18 43.31888 5.32792 2842 ft 190 kts 356°
2026-05-06 09:18 43.33178 5.32761 2737 ft 178 kts 356°
2026-05-06 09:19 43.34425 5.32730 2486 ft 175 kts 356°
2026-05-06 09:19 43.35606 5.32555 2257 ft 166 kts 335°
2026-05-06 09:19 43.36525 5.31676 2077 ft 155 kts 317°
2026-05-06 09:19 43.37247 5.30686 1996 ft 140 kts 313°
2026-05-06 09:20 43.37911 5.29715 1975 ft 137 kts 313°
2026-05-06 09:20 43.38564 5.28768 1756 ft 136 kts 314°
2026-05-06 09:20 43.39223 5.27827 1526 ft 136 kts 314°
2026-05-06 09:20 43.39886 5.26885 1282 ft 135 kts 314°
2026-05-06 09:21 43.40538 5.25956 1045 ft 135 kts 314°
2026-05-06 09:21 43.41189 5.25031 805 ft 134 kts 314°
2026-05-06 09:21 43.41839 5.24108 563 ft 134 kts 313°
2026-05-06 09:21 43.42482 5.23194 318 ft 134 kts 313°
2026-05-06 09:22 43.43125 5.22281 96 ft 133 kts 313°
2026-05-06 09:22 43.43737 5.21407 27 ft 108 kts 314°
2026-05-06 09:22 43.44128 5.20851 14 ft 41 kts 314°
2026-05-06 09:22 43.44236 5.20740 14 ft 11 kts
2026-05-06 09:23 43.44299 5.20805 13 ft 12 kts 59°
2026-05-06 09:23 43.44295 5.20916 14 ft 12 kts 116°
2026-05-06 09:23 43.44246 5.21018 15 ft 13 kts 130°
2026-05-06 09:23 43.44183 5.21110 16 ft 12 kts 134°
2026-05-06 09:24 43.44123 5.21194 18 ft 12 kts 134°
2026-05-06 09:24 43.44061 5.21285 19 ft 13 kts 133°
2026-05-06 09:24 43.43992 5.21384 20 ft 15 kts 134°
2026-05-06 09:24 43.43927 5.21480 22 ft 10 kts 121°
2026-05-06 09:25 43.43936 5.21576 21 ft 11 kts 46°
2026-05-06 09:25 43.43985 5.21669 20 ft 12 kts 86°
2026-05-06 09:25 43.43939 5.21758 23 ft 11 kts 134°
2026-05-06 09:25 43.43899 5.21836 25 ft 9 kts 93°
2026-05-06 09:26 43.43938 5.21908 26 ft 10 kts 43°
2026-05-06 09:26 43.43991 5.21979 26 ft 10 kts 49°
2026-05-06 09:26 43.43977 5.22054 29 ft 8 kts 134°
2026-05-06 09:26 43.43944 5.22100 31 ft 4 kts 134°
2026-05-06 09:27 43.43940 5.22126 32 ft 2 kts 66°
2026-05-06 09:27 43.43946 5.22144 32 ft 3 kts 63°
2026-05-06 09:27 43.43963 5.22189 34 ft 5 kts 62°
2026-05-06 09:27 43.43972 5.22210 35 ft 0 kts 61°